User: anonymous
Location: Monroe
(41.9160°N, 83.3980°W)
Time: 13:28:17
(UTC-04:00)
Language:

ISS - Orbit

View from above orbital plane
View from above orbital plane
View from above satellite
View from above satellite

Ground track
Ground track

The orbit data is extracted from the following two-line orbital elements,

1 25544U 98067A   14109.38487390  .00032473  00000-0  57451-3 0  1139
2 25544 051.6495 030.9996 0003472 301.0964 162.0595 15.50002970882204
Epoch (UTC): 19 April 2014 09:14:13
Eccentricity: 0.0003472
inclination: 51.6495°
perigee height: 414 km
apogee height: 419 km
right ascension of ascending node: 30.9996°
argument of perigee: 301.0964°
revolutions per day: 15.50002970
mean anomaly at epoch: 162.0595°
orbit number at epoch: 88220

The dashed part of the orbit path shows where the satellite is in the earth's shadow,  

DLR